Back to catalog

FENGYUN 1C DEB

LostSSO
NORAD 37708·DEBRIS·🇨🇳 China

Launched May 10, 1999 from Taiyuan Satellite Launch Center

Loading…

Next Passes (next 24 hours)

TLE

StaleSource: Space-Track

Epoch: Aug 14, 2024, 02:14 UTC

1 37708U 99025ELZ 24227.09353258  .00044407  00000-0  68960-2 0  9992
2 37708  98.4441 335.5341 0275045 210.1265 148.3865 14.50617708851379

Track FENGYUN 1C DEB in real time with AllMySat

Download on the App Store